TimeEDT,TemperatureF,Dew PointF,Humidity,Sea Level PressureIn,VisibilityMPH,Wind Direction,Wind SpeedMPH,Gust SpeedMPH,PrecipitationIn,Events,Conditions,WindDirDegrees,DateUTC
12:53 AM,81.0,71.1,72,29.81,10.0,WSW,10.4,23.0,0.00,,Mostly Cloudy,250,2013-08-28 04:53:00
1:53 AM,82.0,69.1,65,29.81,10.0,West,11.5,21.9,N/A,,Clear,260,2013-08-28 05:53:00
2:53 AM,82.0,68.0,62,29.83,10.0,WNW,5.8,-,N/A,,Overcast,300,2013-08-28 06:53:00
3:53 AM,80.1,68.0,67,29.83,10.0,West,4.6,-,0.00,,Scattered Clouds,260,2013-08-28 07:53:00
4:53 AM,79.0,68.0,69,29.83,10.0,WSW,6.9,-,N/A,,Clear,250,2013-08-28 08:53:00
5:53 AM,78.1,68.0,71,29.82,10.0,West,8.1,-,N/A,,Clear,260,2013-08-28 09:53:00
6:53 AM,75.9,69.1,79,29.85,10.0,WNW,6.9,-,N/A,,Clear,290,2013-08-28 10:53:00
7:53 AM,75.0,70.0,84,29.86,10.0,NW,8.1,-,N/A,,Partly Cloudy,310,2013-08-28 11:53:00
8:13 AM,75.2,71.6,89,29.89,10.0,NW,9.2,-,N/A,,Mostly Cloudy,320,2013-08-28 12:13:00
8:53 AM,75.0,71.1,87,29.88,3.0,North,9.2,-,N/A,,Overcast,350,2013-08-28 12:53:00
9:53 AM,75.9,72.0,87,29.90,3.0,North,5.8,-,N/A,,Overcast,360,2013-08-28 13:53:00
10:53 AM,78.1,71.1,79,29.91,10.0,North,9.2,-,N/A,,Overcast,10,2013-08-28 14:53:00
11:53 AM,79.0,71.1,77,29.92,10.0,NNE,4.6,-,N/A,,Overcast,30,2013-08-28 15:53:00
12:00 PM,78.8,71.6,78,29.94,10.0,NNE,8.1,-,N/A,,Overcast,30,2013-08-28 16:00:00
12:53 PM,80.1,71.1,74,29.93,10.0,NNE,4.6,-,N/A,,Overcast,30,2013-08-28 16:53:00
1:53 PM,78.1,71.1,79,29.95,10.0,NNE,9.2,-,N/A,,Overcast,20,2013-08-28 17:53:00
2:53 PM,78.1,71.1,79,29.96,10.0,NNE,6.9,-,N/A,,Overcast,20,2013-08-28 18:53:00
3:53 PM,79.0,70.0,74,29.96,10.0,Variable,5.8,-,N/A,,Overcast,0,2013-08-28 19:53:00
4:53 PM,79.0,70.0,74,29.97,10.0,NE,6.9,-,N/A,,Overcast,50,2013-08-28 20:53:00
5:53 PM,79.0,70.0,74,29.98,10.0,Variable,4.6,-,N/A,,Overcast,0,2013-08-28 21:53:00
6:53 PM,79.0,69.1,72,29.98,10.0,NNE,6.9,-,N/A,,Mostly Cloudy,30,2013-08-28 22:53:00
7:53 PM,78.1,69.1,74,29.98,10.0,NNE,4.6,-,N/A,,Clear,20,2013-08-28 23:53:00
8:53 PM,75.0,69.1,82,30.00,10.0,North,3.5,-,N/A,,Clear,10,2013-08-29 00:53:00
9:53 PM,72.0,69.1,91,30.02,10.0,North,4.6,-,N/A,,Clear,360,2013-08-29 01:53:00
10:53 PM,72.0,69.1,91,30.03,10.0,Calm,Calm,-,N/A,,Clear,0,2013-08-29 02:53:00
11:53 PM,69.1,66.9,93,30.03,9.0,Calm,Calm,-,N/A,,Clear,0,2013-08-29 03:53:00